"Pseudo-MPEC" for P20YcTL

Created 2020 Mar 27 13:07:17 UT using Find_Orb

Click here for an explanation of pseudo-MPECs

 
 Astrometry: 
     P20YcTL  C2020 03 259HAstrometrycT!QfvMHW@71x5_!AWA\h\6ft%%vredacted;C3wF52
     P20YcTL  C2020 03 25_e=5l@F2WX(OV=41^E,@gB0SiYlclick2FDq1a`#'-5^eq4u4,rHF52
     P20YcTL  C2020 03 258l5ZVCPFVBXf*4(jk/where[HR\7A^C9`5`PIsybOvu+%?DIe.!VF52
     P20YcTL  C2020 03 25.99117 14 56 09.96 +22 35 33.9    ~3Q0M 19.7 VVNEOCP033
     P20YcTL  C2020 03 25.99296 14 56 08.85 +22 35 32.8    ~3Q0M 19.8 VVNEOCP033
     P20YcTL  C2020 03 25.99474 14 56 07.77 +22 35 31.5    ~3Q0M 19.7 VVNEOCP033
     P20YcTL KC2020 03 26.04075 14 55 39.59 +22 35 02.6    ~3Q27 19.8 VqNEOCPI93
     P20YcTL KC2020 03 26.04433 14 55 37.35 +22 35 00.2    ~3Q27 19.8 VqNEOCPI93
     P20YcTL KC2020 03 26.06668 14 55 23.48 +22 34 43.8    ~3Q27 20.0 VqNEOCPI93
     P20YcTL KC2020 03 26.07044 14 55 21.14 +22 34 41.7    ~3Q27 20.4 VqNEOCPI93
     P20YcTL  C2020 03 26.15075 14 54 31.12 +22 33 39.4    ~3Q47 20.2 VVNEOCP033
     P20YcTL  C2020 03 26.15184 14 54 30.44 +22 33 38.4    ~3Q47 20.3 VVNEOCP033
     P20YcTL  C2020 03 26.15294 14 54 29.77 +22 33 37.4    ~3Q47 20.7 VVNEOCP033
     P20YcTL KC2020 03 26=R8/sPforRgkB'ukCHE`QA5\]:V\cAjAF\M8k!BwhexplanationH21
     P20YcTL KC2020 03 26g?IbeF00,a+ADB5T$SuHqpH-C`xD]PfJI53h\wxB_]]-k^`fa2\/H21
     P20YcTL KC2020 03 26?YJrX-HD1K4x:JvlF5PdL0r=n2]/Ds?dRC\0*^/;/C:#Gjpm%FX+H21
     P20YcTL  C2020 03 26.88863 14 47 13.13 +22 24 00.0    ~3QLq 20.0 VVNEOCP033
     P20YcTL  C2020 03 26.88984 14 47 12.44 +22 23 58.7    ~3QLq 19.7 VVNEOCP033
     P20YcTL  C2020 03 26.89104 14 47 11.73 +22 23 57.7    ~3QLq 19.7 VVNEOCP033
     P20YcTL KC2020 03 26.99466 14 46 11.04 +22 22 38.0    ~3R0M 20.1 VqNEOCPI93
     P20YcTL KC2020 03 26.99857 14 46 08.75 +22 22 34.4    ~3R0M 20.0 VqNEOCPI93
     P20YcTL KC2020 03 27.00303 14 46 06.11 +22 22 31.3    ~3R0M 20.0 VqNEOCPI93
     P20YcTL KC2020 03 27.01266714 46 00.38 +22 22 19.7    ~3R17 20.3 GVNEOCPJ95
     P20YcTL IC2020 03 27V*H$_4aX-%0Pau4y*Ob'CfNg\Al(SQ8]SpT8^;pk@'u[V/4`9vg6L01
     P20YcTL bC2020 03 27bo$D6JDr[Ui5nM*dsJEn_!Xs;qJ\a2Qe1B6kf8dGG-];ZgZ-lYV+L01
     P20YcTL KC2020 03 27.02149114 45 55.19 +22 22 12.0    ~3R17 20.3 GVNEOCPJ95
     P20YcTL bC2020 03 2754YP_)gFo2Z`L:DN;Q11eRksx$O*m=cxFeo)hPjj0p^TD+/1JVw:L01
     P20YcTL KC2020 03 27.02859314 45 51.03 +22 22 06.9    ~3R17 19.9 GVNEOCPJ95
     P20YcTL  C2020 03 27.09858 14 45 09.51 +22 21 08.1    ~3R47 20.0 VVNEOCP033
     P20YcTL  C2020 03 27.09979 14 45 08.79 +22 21 07.1    ~3R47 19.9 VVNEOCP033
     P20YcTL  C2020 03 27.10100 14 45 08.08 +22 21 06.2    ~3R47 20.2 VVNEOCP033
     P20YcTL  C2020 03 27.49734 14 41 20.81 +22 15 28.3    ~3RC7 20.6 GVNEOCPI52
     P20YcTL  C2020 03 27.49777 14 41 20.56 +22 15 27.6    ~3RC7 20.5 GVNEOCPI52
     P20YcTL  C2020 03 27.49818 14 41 20.29 +22 15 28.4    ~3RC7 20.7 GVNEOCPI52

Station data:
(033) Karl Schwarzschild Observatory, Tautenburg  (N50.980140 E11.711240)
   Germany. 1.3-m Schmidt.
(F52) Pan-STARRS 2, Haleakala  (N20.707384 W156.255910)  US/Hawaii. 1.8-m
   Ritchey-Chrétien + CCD.
(H21) Astronomical Research Observatory, Westfield  (N39.483057 W87.968270)
   US/Illinois. 0.76-m f/3.0 astrograph + CCD.
(I52) Steward Observatory, Mt. Lemmon Station  (N32.442547 W110.788920)
   US/Arizona.  Observers T. A. Pruyne, B. M. Africano, E. J. Christensen, G.
   A. Farneth, D. C. Fuls, A. R. Gibbs, A. D. Grauer, H. Gröller, J. A.
   Johnson, R. A. Kowalski, S. M. Larson, G. J. Leonard, D. Rankin, R. L.
   Seaman, F. C. Shelly. 1.0-m reflector + CCD.
(I93) St Pardon de Conques  (N44.558710 W0.203000)  France.  Observer F.
   Losse. 0.40-m f/3.7 reflector + CCD.
(J95) Great Shefford  (N51.474969 W1.447003)  UK.  Observer P. Birtwhistle.
   0.40-m f/6.0 Schmidt-Cassegrain + CCD.
(L01) Višnjan Observatory, Tičan  (N45.290900 E13.749300)  Croatia.
   Observers K. Korlević, E. Pettarin. Measurer E. Pettarin. 1.0-m f/2.9
   reflector + CCD.

Orbital elements:  P20YcTL
   Perihelion 2020 Jan 26.986317 +/- 0.229 TT = 23:40:17 (JD 2458875.486317)
Epoch 2020 Mar 27.0 TT = JDT 2458935.5   Earth MOID: 0.1477   Ve: 0.0754
M  26.47680305 +/- 0.6              Me: 0.0592                AutoNEOCP
n   0.44117943 +/- 0.00963          Peri.  359.96508 +/- 250
a   1.70893629 +/- 0.0249           Node    64.67946 +/- 0.57
e   0.7850980 +/- 0.00533           Incl.    9.45068 +/- 0.14
P   2.23/815.98d           H 21.3   G  0.15   U  9.6  
q 0.36725377 +/- 0.00372    Q 3.05061881 +/- 0.0525
From 34 observations 2020 Mar. 25-27; mean residual 0".33
Residuals in arcseconds: 
200325 F52  .08+  .01-    200326 033  .10+  .32-    200327 L01  .37-  .93+    
200325 F52  .01-  .30-    200326 H21  .25+  .22+    200327 J95  .07+  .44-    
200325 F52  .07+  .06-    200326 H21  .15+  .41+    200327 L01  .45-  .44+    
200325 033  .46-  .18-    200326 H21  .13+  .35+    200327 J95  .32+  .27+    
200325 033  .43-  .06-    200326 033  .63-  .06+    200327 033  .30-  .31-    
200325 033  .07-  .14-    200326 033  .32-  .29-    200327 033  .43-  .27-    
200326 I93  .08+  .24+    200326 033  .38-  .36-    200327 033  .43-  .13-    
200326 I93  .15-  .33+    200326 I93  .52-  .42+    200327 I52  .20+  .29-    
200326 I93  .02+  .45-    200326 I93  .31-  .04-    200327 I52  .16+  .59-    
200326 I93  .05-  .11+    200327 I93  .46-  .46+    200327 I52  .31-  .59+    
200326 033  .10+  .03+    200327 J95  .05+  .07+    
200326 033  .01-  .15-    200327 L01  .04-  .82-    

Ephemerides (geocentric):
Date (UTC) HH   RA              Dec         delta   r     elong  mag " sig PA
---- -- -- --  -------------   -----------  ------ ------ -----  --- ---- ---
2020 03 27 13  14 40 56.824   +22 14 56.04  .27661 1.2193 138.6 20.3 .142  12
2020 03 27 14  14 40 33.351   +22 14 18.48  .27695 1.2199 138.7 20.3 .143  15
2020 03 27 15  14 40 09.933   +22 13 40.74  .27729 1.2204 138.8 20.3 .145  19
2020 03 27 16  14 39 46.569   +22 13 02.82  .27764 1.2210 138.9 20.3 .148  23
2020 03 27 17  14 39 23.259   +22 12 24.72  .27798 1.2215 139.0 20.3 .151  27
2020 03 27 18  14 39 00.004   +22 11 46.44  .27832 1.2221 139.1 20.3 .155  31
2020 03 27 19  14 38 36.803   +22 11 07.99  .27867 1.2227 139.2 20.3 .160  34
2020 03 27 20  14 38 13.655   +22 10 29.37  .27901 1.2232 139.3 20.3 .165  38
2020 03 27 21  14 37 50.562   +22 09 50.57  .27936 1.2238 139.4 20.3 .172  41
2020 03 27 22  14 37 27.523   +22 09 11.60  .27971 1.2243 139.5 20.3 .179  45
2020 03 27 23  14 37 04.538   +22 08 32.46  .28006 1.2249 139.6 20.3 .186  48
2020 03 28 00  14 36 41.607   +22 07 53.16  .28040 1.2255 139.7 20.3 .194  51
2020 03 28 01  14 36 18.730   +22 07 13.69  .28075 1.2260 139.8 20.3 .203  53
2020 03 28 02  14 35 55.907   +22 06 34.05  .28110 1.2266 139.9 20.3 .212  56
2020 03 28 03  14 35 33.138   +22 05 54.25  .28145 1.2271 140.0 20.3 .222  58
2020 03 28 04  14 35 10.422   +22 05 14.29  .28181 1.2277 140.1 20.3 .232  60
2020 03 28 05  14 34 47.760   +22 04 34.16  .28216 1.2283 140.2 20.3 .243  63
2020 03 28 06  14 34 25.152   +22 03 53.88  .28251 1.2288 140.3 20.3 .255  65
2020 03 28 07  14 34 02.597   +22 03 13.44  .28287 1.2294 140.4 20.3 .267  66
2020 03 28 08  14 33 40.096   +22 02 32.84  .28322 1.2299 140.5 20.3 .279  68
2020 03 28 09  14 33 17.648   +22 01 52.08  .28358 1.2305 140.6 20.3 .292  70
2020 03 28 10  14 32 55.254   +22 01 11.18  .28393 1.2311 140.6 20.3 .305  71
2020 03 28 11  14 32 32.913   +22 00 30.11  .28429 1.2316 140.7 20.3 .318  73
2020 03 28 12  14 32 10.626   +21 59 48.90  .28465 1.2322 140.8 20.3 .332  74
2020 03 28 13  14 31 48.392   +21 59 07.54  .28501 1.2327 140.9 20.3 .346  75
2020 03 28 14  14 31 26.211   +21 58 26.03  .28537 1.2333 141.0 20.3 .361  76
2020 03 28 15  14 31 04.083   +21 57 44.37  .28573 1.2338 141.1 20.3 .376  78
2020 03 28 16  14 30 42.008   +21 57 02.56  .28609 1.2344 141.2 20.3 .391  79
2020 03 28 17  14 30 19.987   +21 56 20.61  .28645 1.2350 141.3 20.3 .407  80
2020 03 28 18  14 29 58.018   +21 55 38.52  .28681 1.2355 141.4 20.3 .423  81
2020 03 28 19  14 29 36.102   +21 54 56.29  .28718 1.2361 141.5 20.3 .439  81
2020 03 28 20  14 29 14.239   +21 54 13.91  .28754 1.2366 141.6 20.3 .455  82
2020 03 28 21  14 28 52.429   +21 53 31.39  .28791 1.2372 141.7 20.3 .472  83
2020 03 28 22  14 28 30.672   +21 52 48.74  .28827 1.2377 141.8 20.3 .489  84
2020 03 28 23  14 28 08.967   +21 52 05.95  .28864 1.2383 141.8 20.3 .506  85
2020 03 29 00  14 27 47.315   +21 51 23.02  .28900 1.2389 141.9 20.3 .524  85
2020 03 29 01  14 27 25.715   +21 50 39.96  .28937 1.2394 142.0 20.3 .542  86
2020 03 29 02  14 27 04.168   +21 49 56.77  .28974 1.2400 142.1 20.3 .560  86
2020 03 29 03  14 26 42.673   +21 49 13.44  .29011 1.2405 142.2 20.3 .579  87
2020 03 29 04  14 26 21.231   +21 48 29.98  .29048 1.2411 142.3 20.3 .597  88
2020 03 29 05  14 25 59.841   +21 47 46.39  .29085 1.2416 142.4 20.3 .616  88
2020 03 29 06  14 25 38.503   +21 47 02.68  .29122 1.2422 142.5 20.3 .636  89
2020 03 29 07  14 25 17.217   +21 46 18.84  .29159 1.2427 142.6 20.3 .655  89
2020 03 29 08  14 24 55.983   +21 45 34.87  .29197 1.2433 142.6 20.3 .675  90
2020 03 29 09  14 24 34.801   +21 44 50.77  .29234 1.2439 142.7 20.3 .695  90
2020 03 29 10  14 24 13.671   +21 44 06.56  .29272 1.2444 142.8 20.3 .715  91
2020 03 29 11  14 23 52.593   +21 43 22.22  .29309 1.2450 142.9 20.3 .735  91
2020 03 29 12  14 23 31.567   +21 42 37.76  .29347 1.2455 143.0 20.3 .756  92